When you browse on this site, cookies collect data to enhance your experience and personalize the content and advertising you see.
Visit our Privacy Policy to learn more. By continuing to use the site, you agree to this use of cookies and data.
  • en Suisse
  • Liste des pays
  • À 7 jours
  • Température de l'eau
  • Carte satellitaire
  • Carte météo
  • Widgets météo
  • user-avatar
    Se connecter

    Météo par heure à Fateevo

    Ce jour, 18 Juin, Mardi

    Heure Température Précipitation Vent Pression Humidité
    00:00 +18°C° 0 mm 1 m/s 744 mmHg 82%
    01:00 +17°C° 0 mm 2 m/s 744 mmHg 85%
    02:00 +17°C° 0 mm 2 m/s 744 mmHg 87%
    03:00 +16°C° 0 mm 2 m/s 744 mmHg 87%
    04:00 +17°C° 0.2 mm 2 m/s 744 mmHg 88%
    05:00 +17°C° 0.2 mm 2 m/s 743 mmHg 88%
    06:00 +18°C° 0.2 mm 2 m/s 743 mmHg 89%
    07:00 +19°C° 1 mm 2 m/s 743 mmHg 87%
    08:00 +20°C° 1 mm 2 m/s 743 mmHg 84%
    09:00 +21°C° 1 mm 2 m/s 743 mmHg 82%
    10:00 +24°C° 1 mm 2 m/s 743 mmHg 76%
    11:00 +25°C° 1 mm 3 m/s 743 mmHg 70%
    12:00 +26°C° 1 mm 3 m/s 743 mmHg 64%
    13:00 +26°C° 0.4 mm 3 m/s 743 mmHg 65%
    14:00 +26°C° 0.4 mm 3 m/s 743 mmHg 66%
    15:00 +26°C° 0.4 mm 3 m/s 743 mmHg 67%
    16:00 +26°C° 0.4 mm 3 m/s 743 mmHg 69%
    17:00 +26°C° 0.4 mm 3 m/s 743 mmHg 72%
    18:00 +25°C° 0.4 mm 3 m/s 743 mmHg 74%
    19:00 +24°C° 0.2 mm 2 m/s 743 mmHg 77%
    20:00 +21°C° 0.2 mm 2 m/s 743 mmHg 79%
    21:00 +20°C° 0.2 mm 2 m/s 743 mmHg 82%
    22:00 +19°C° 0 mm 2 m/s 743 mmHg 83%
    23:00 +18°C° 0 mm 2 m/s 743 mmHg 85%

    Demain, 19 Juin, Mercredi

    Heure Température Précipitation Vent Pression Humidité
    00:00 +17°C° 0 mm 3 m/s 744 mmHg 86%
    01:00 +17°C° 0 mm 3 m/s 744 mmHg 87%
    02:00 +16°C° 0 mm 3 m/s 744 mmHg 88%
    03:00 +16°C° 0 mm 3 m/s 744 mmHg 89%
    04:00 +16°C° 0 mm 3 m/s 744 mmHg 88%
    05:00 +16°C° 0 mm 3 m/s 745 mmHg 86%
    06:00 +16°C° 0 mm 3 m/s 745 mmHg 85%
    07:00 +18°C° 0 mm 3 m/s 745 mmHg 80%
    08:00 +20°C° 0 mm 3 m/s 745 mmHg 75%
    09:00 +21°C° 0 mm 3 m/s 745 mmHg 70%
    10:00 +22°C° 0 mm 3 m/s 745 mmHg 65%
    11:00 +24°C° 0 mm 3 m/s 746 mmHg 60%
    12:00 +25°C° 0 mm 3 m/s 746 mmHg 55%
    13:00 +26°C° 0 mm 3 m/s 746 mmHg 54%
    14:00 +26°C° 0 mm 3 m/s 746 mmHg 54%
    15:00 +26°C° 0 mm 3 m/s 746 mmHg 53%
    16:00 +26°C° 0 mm 2 m/s 745 mmHg 56%
    17:00 +26°C° 0 mm 2 m/s 745 mmHg 59%
    18:00 +26°C° 0 mm 2 m/s 745 mmHg 63%
    19:00 +24°C° 0 mm 1 m/s 745 mmHg 67%
    20:00 +22°C° 0 mm 1 m/s 745 mmHg 71%
    21:00 +18°C° 0 mm 0 m/s 745 mmHg 76%
    22:00 +20°C° 0 mm 1 m/s 746 mmHg 77%
    23:00 +19°C° 0 mm 1 m/s 746 mmHg 78%

    Après-demain, 20 Juin, Jeudi

    Heure Température Précipitation Vent Pression Humidité
    00:00 +19°C° 0 mm 1 m/s 746 mmHg 79%
    01:00 +18°C° 0 mm 1 m/s 746 mmHg 80%
    02:00 +18°C° 0 mm 1 m/s 746 mmHg 82%
    03:00 +16°C° 0 mm 1 m/s 746 mmHg 83%
    04:00 +18°C° 0 mm 1 m/s 746 mmHg 82%
    05:00 +19°C° 0 mm 1 m/s 747 mmHg 81%
    06:00 +20°C° 0 mm 1 m/s 747 mmHg 80%
    07:00 +21°C° 0 mm 1 m/s 747 mmHg 75%
    08:00 +23°C° 0 mm 1 m/s 747 mmHg 70%
    09:00 +24°C° 0 mm 1 m/s 747 mmHg 65%
    10:00 +25°C° 0 mm 1 m/s 747 mmHg 60%
    11:00 +24°C° 0 mm 0 m/s 747 mmHg 55%
    12:00 +26°C° 0 mm 0 m/s 747 mmHg 50%
    13:00 +26°C° 0 mm 0 m/s 747 mmHg 49%
    14:00 +26°C° 0 mm 0 m/s 747 mmHg 49%
    15:00 +26°C° 0 mm 0 m/s 747 mmHg 48%
    16:00 +26°C° 0 mm 0 m/s 746 mmHg 51%
    17:00 +26°C° 0 mm 0 m/s 746 mmHg 54%
    18:00 +25°C° 0 mm 0 m/s 746 mmHg 57%
    19:00 +25°C° 0 mm 1 m/s 746 mmHg 61%
    20:00 +24°C° 0 mm 1 m/s 746 mmHg 64%
    21:00 +22°C° 0 mm 1 m/s 746 mmHg 67%
    22:00 +21°C° 0 mm 1 m/s 746 mmHg 70%
    23:00 +20°C° 0 mm 1 m/s 747 mmHg 72%

    21 Juin, Vendredi

    Heure Température Précipitation Vent Pression Humidité
    00:00 +19°C° 0 mm 2 m/s 747 mmHg 74%
    01:00 +18°C° 0 mm 2 m/s 747 mmHg 77%
    02:00 +19°C° 0 mm 1 m/s 747 mmHg 80%
    03:00 +18°C° 0 mm 1 m/s 747 mmHg 82%
    04:00 +19°C° 0 mm 1 m/s 747 mmHg 82%
    05:00 +20°C° 0 mm 1 m/s 747 mmHg 81%
    06:00 +21°C° 0 mm 1 m/s 747 mmHg 81%
    07:00 +22°C° 0 mm 1 m/s 748 mmHg 76%
    08:00 +23°C° 0 mm 1 m/s 748 mmHg 71%
    09:00 +25°C° 0 mm 2 m/s 748 mmHg 66%
    10:00 +26°C° 0 mm 2 m/s 748 mmHg 62%
    11:00 +26°C° 0 mm 2 m/s 748 mmHg 59%
    12:00 +27°C° 0 mm 3 m/s 748 mmHg 55%
    13:00 +27°C° 0 mm 3 m/s 748 mmHg 55%
    14:00 +27°C° 0 mm 3 m/s 747 mmHg 54%
    15:00 +28°C° 0 mm 3 m/s 747 mmHg 54%
    16:00 +27°C° 0 mm 2 m/s 747 mmHg 58%
    17:00 +27°C° 0 mm 2 m/s 747 mmHg 63%
    18:00 +27°C° 0 mm 2 m/s 747 mmHg 67%
    19:00 +25°C° 0 mm 2 m/s 747 mmHg 71%
    20:00 +24°C° 0 mm 2 m/s 747 mmHg 74%
    21:00 +21°C° 0 mm 2 m/s 747 mmHg 78%
    22:00 +21°C° 0 mm 2 m/s 747 mmHg 79%
    23:00 +20°C° 0 mm 2 m/s 747 mmHg 79%

    22 Juin, Samedi

    Heure Température Précipitation Vent Pression Humidité
    00:00 +19°C° 0 mm 2 m/s 747 mmHg 80%
    01:00 +19°C° 0 mm 2 m/s 747 mmHg 81%
    02:00 +19°C° 0 mm 2 m/s 747 mmHg 83%
    03:00 +18°C° 0 mm 2 m/s 747 mmHg 84%
    04:00 +19°C° 0 mm 2 m/s 747 mmHg 83%
    05:00 +19°C° 0 mm 2 m/s 747 mmHg 82%
    06:00 +19°C° 0 mm 2 m/s 747 mmHg 82%
    07:00 +21°C° 0 mm 3 m/s 747 mmHg 78%
    08:00 +22°C° 0 mm 3 m/s 747 mmHg 75%
    09:00 +25°C° 0 mm 3 m/s 747 mmHg 72%
    10:00 +26°C° 0 mm 4 m/s 747 mmHg 68%
    11:00 +27°C° 0 mm 4 m/s 747 mmHg 64%
    12:00 +28°C° 0 mm 4 m/s 747 mmHg 60%
    13:00 +28°C° 0 mm 4 m/s 747 mmHg 60%
    14:00 +28°C° 0 mm 5 m/s 747 mmHg 59%
    15:00 +29°C° 0 mm 5 m/s 746 mmHg 59%
    16:00 +28°C° 0 mm 4 m/s 746 mmHg 63%
    17:00 +28°C° 0 mm 4 m/s 746 mmHg 67%
    18:00 +28°C° 0 mm 3 m/s 746 mmHg 71%
    19:00 +26°C° 0 mm 3 m/s 746 mmHg 75%
    20:00 +25°C° 0 mm 3 m/s 746 mmHg 79%
    21:00 +22°C° 0 mm 3 m/s 746 mmHg 83%
    22:00 +22°C° 0 mm 3 m/s 746 mmHg 84%
    23:00 +21°C° 0 mm 3 m/s 746 mmHg 85%

    23 Juin, Dimanche

    Heure Température Précipitation Vent Pression Humidité
    00:00 +21°C° 0 mm 3 m/s 746 mmHg 87%
    01:00 +20°C° 0 mm 3 m/s 746 mmHg 88%
    02:00 +20°C° 0 mm 3 m/s 746 mmHg 89%
    03:00 +20°C° 0 mm 3 m/s 746 mmHg 91%
    04:00 +20°C° 0 mm 3 m/s 746 mmHg 90%
    05:00 +20°C° 0 mm 2 m/s 747 mmHg 89%
    06:00 +21°C° 0 mm 2 m/s 747 mmHg 88%
    07:00 +24°C° 0 mm 2 m/s 747 mmHg 82%
    08:00 +25°C° 0 mm 2 m/s 747 mmHg 77%
    09:00 +27°C° 0 mm 3 m/s 747 mmHg 71%
    10:00 +28°C° 0.1 mm 3 m/s 747 mmHg 67%
    11:00 +29°C° 0.1 mm 3 m/s 747 mmHg 63%
    12:00 +29°C° 0.1 mm 4 m/s 747 mmHg 59%
    13:00 +30°C° 0.1 mm 4 m/s 747 mmHg 58%
    14:00 +30°C° 0.1 mm 4 m/s 747 mmHg 57%
    15:00 +30°C° 0.1 mm 4 m/s 746 mmHg 56%
    16:00 +30°C° 0 mm 3 m/s 746 mmHg 61%
    17:00 +29°C° 0 mm 3 m/s 746 mmHg 65%
    18:00 +29°C° 0 mm 2 m/s 746 mmHg 69%
    19:00 +27°C° 0 mm 2 m/s 746 mmHg 71%
    20:00 +26°C° 0 mm 2 m/s 746 mmHg 74%
    21:00 +24°C° 0 mm 2 m/s 746 mmHg 76%
    22:00 +24°C° 0 mm 2 m/s 746 mmHg 78%
    23:00 +23°C° 0 mm 2 m/s 746 mmHg 79%
    Voir plus